Location: Kawakawa
(35.3830°S, 174.0670°E)
Time: 20:34:06
(UTC+13:00)

Tiros 1 - Visible Passes

Search period start: 16 December 2019 00:00
Search period end: 26 December 2019 00:00
Orbit: 630 x 664 km, 48.4° (Epoch: 15 December)

Date Brightness Start Highest point End Pass type
(mag) Time Alt. Az. Time Alt. Az. Time Alt. Az.
16 Dec 8.7 22:10:09 10° SW 22:14:25 30° SSE 22:17:56 14° E visible
16 Dec 8.0 23:52:07 10° WSW 23:55:34 44° WSW 23:55:34 44° WSW visible
17 Dec 7.7 22:36:02 10° SW 22:40:46 54° SSE 22:42:32 35° E visible
18 Dec 9.4 00:18:41 10° WSW 00:20:11 17° W 00:20:11 17° W visible
18 Dec 8.7 21:20:08 10° SW 21:24:20 29° SSE 21:28:32 10° E visible
18 Dec 7.1 23:02:03 10° WSW 23:06:52 71° NW 23:07:12 68° N visible
19 Dec 7.8 21:46:00 10° SW 21:50:42 50° SSE 21:54:16 17° ENE visible
19 Dec 8.6 23:28:33 10° WSW 23:31:55 28° WNW 23:31:55 28° WNW visible
20 Dec 7.2 22:12:00 10° SW 22:16:50 78° NW 22:19:02 32° NE visible
20 Dec 9.8 23:56:36 10° WNW 23:56:42 10° WNW 23:56:42 10° WNW visible
21 Dec 8.2 22:38:26 10° WSW 22:42:43 33° NW 22:43:53 29° NNW visible
22 Dec 7.2 21:21:58 10° SW 21:26:47 84° NW 21:31:07 13° NE visible
22 Dec 9.4 23:06:08 10° W 23:08:25 13° NW 23:08:47 13° NW visible
23 Dec 8.3 21:48:20 10° WSW 21:52:42 36° NW 21:56:06 15° NNE visible
24 Dec 9.5 22:15:46 10° W 22:18:25 15° NW 22:21:03 10° NNW visible
